Regional Weather Roundup
Issued by NWS Goodland, KS

Home | Current Version | Previous Version | Graphics & Text | Print | Product List | Glossary On
Versions: 1 2 3 4 5 6 7 8 9 10 11 12 13 14 15 16 17 18 19 20 21 22 23 24 25 26 27 28 29 30 31 32 33 34 35 36 37 38 39 40 41 42 43 44 45 46 47 48 49 50
000
ASUS43 KGLD 261108
RWRGLD

GOODLAND FORECAST AREA HOURLY WEATHER ROUNDUP
NATIONAL WEATHER SERVICE GOODLAND KS
500 AM MDT TUE MAY 26 2015

...OFFICIAL OBSERVATIONS...

CITY           SKY/WX    TMP DP  RH WIND       PRES   REMARKS
GOODLAND KS    CLEAR     45  44  97 NW7       29.95R
HILL CITY KS   CLEAR     53  50  89 NW10      29.87S
IMPERIAL NEB   PTCLDY    50  48  93 W7        29.92S
MCCOOK NEB     MOCLDY    51  49  92 W7        29.89R
AKRON CO       MOCLDY    45  45 100 NW9       29.98S
BURLINGTON CO  CLEAR     46  42  86 NW9       29.97R
LIMON CO       MOCLDY    45  42  89 W6        30.01S
$$

...UNOFFICIAL OBSERVATIONS...

CITY           SKY/WX    TMP DP  RH WIND       PRES   REMARKS
COLBY KS       CLEAR     50  50 100 W9        29.93R
GOVE KS          N/A     53  32  45 MISG        N/A
LENORA KS        N/A     52  32  46 MISG        N/A
NORTON KS      CLEAR     54  48  82 W10       29.86R
SHARON SPRINGS   N/A     47  44  91 MISG        N/A
TRENTON NEB      N/A     52  32  46 NW10        N/A
KIT CARSON CO    N/A     50  47  88 MISG        N/A
$$


USA.gov is the U.S. government's official web portal to all federal, state and local government web resources and services.